Weather History for Northeast Philadelphia, PA

Change the Weather History Date:

Thursday, January 24, 2013

  Actual Average Record
Temperature  
Mean Temperature 20 °F -  
Max Temperature 25 °F 35 °F 64 °F (1999)
Min Temperature 15 °F 21 °F 3 °F (2011)
Degree Days  
Heating Degree Days 45    
Moisture  
Dew Point 1 °F    
Average Humidity 47    
Maximum Humidity 74    
Minimum Humidity 27    
Precipitation  
Precipitation 0.00 in - - ()
Sea Level Pressure  
Sea Level Pressure 30.31 in    
Wind  
Wind Speed 7 mph (NNW)    
Max Wind Speed 18 mph    
Max Gust Speed 30 mph    
Visibility 10 miles    
Events      
Averages and records for this station are not official NWS values.
T = Trace of Precipitation, MM = Missing Value Source: NWS Daily Summary

Daily Weather History Graph

Daily Weather History Graph

Search for Another Location

Airport:

Trip Planner

Search our weather history database for the weather conditions in past years. The results will help you decide how hot, cold, wet, or windy it might be!

Date:

Astronomy

Jan. 24, 2013 Rise Set
Actual Time 7:15 AM EST 5:09 PM EST
Civil Twilight 6:45 AM EST 5:38 PM EST
Nautical Twilight 6:13 AM EST 6:11 PM EST
Astronomical Twilight 5:40 AM EST 6:43 PM EST
Moon 3:09 PM EST (1/24) 5:10 AM EST (1/24)
Length of Visible Light 10h 53m
Length of Day
9h 54m
Waxing Gibbous, 94% of the Moon is Illuminated
Jan 24
Waxing Gibbous
Jan 26
Full
Feb 3
Last Quarter
Feb 10
New
Feb 17
First Quarter

Hourly Weather History & Observations

Time (EST) Temp. Windchill Dew Point Humidity Pressure Visibility Wind Dir Wind Speed Gust Speed Precip Events Conditions
12:54 AM 15.1 °F 9.4 °F 8.1 °F 74% 30.18 in 10.0 mi ENE 3.5 mph - N/A   Overcast
1:54 AM 15.1 °F - 6.1 °F 68% 30.17 in 10.0 mi Calm Calm - N/A   Overcast
2:54 AM 15.1 °F - 7.0 °F 70% 30.16 in 10.0 mi Calm Calm - N/A   Overcast
3:54 AM 16.0 °F - 3.0 °F 57% 30.16 in 10.0 mi Calm Calm - N/A   Overcast
4:54 AM 16.0 °F 10.4 °F 5.0 °F 62% 30.17 in 10.0 mi NE 3.5 mph - N/A   Overcast
5:54 AM 16.0 °F 8.8 °F 3.9 °F 59% 30.19 in 10.0 mi North 4.6 mph - N/A   Overcast
6:54 AM 15.1 °F 4.2 °F 3.0 °F 59% 30.21 in 10.0 mi North 8.1 mph - N/A   Overcast
7:54 AM 15.1 °F 4.2 °F 3.0 °F 59% 30.23 in 10.0 mi North 8.1 mph - N/A   Partly Cloudy
8:54 AM 17.1 °F 5.8 °F 3.0 °F 54% 30.25 in 10.0 mi North 9.2 mph - N/A   Clear
9:08 AM 17.6 °F 3.7 °F 1.4 °F 49% 30.26 in 10.0 mi North 13.8 mph - N/A   Clear
9:54 AM 19.9 °F 6.7 °F 3.0 °F 48% 30.29 in 10.0 mi North 13.8 mph - N/A   Clear
10:54 AM 21.9 °F 9.2 °F 1.0 °F 40% 30.30 in 10.0 mi NW 13.8 mph 20.7 mph 0.00 in   Clear
11:54 AM 24.1 °F 10.6 °F -0.0 °F 35% 30.30 in 10.0 mi NNW 17.3 mph 28.8 mph 0.00 in   Partly Cloudy
12:54 PM 24.1 °F 11.0 °F -0.0 °F 35% 30.30 in 10.0 mi NNW 16.1 mph 26.5 mph N/A   Scattered Clouds
1:54 PM 25.0 °F 11.3 °F -2.9 °F 30% 30.31 in 10.0 mi NW 18.4 mph 28.8 mph N/A   Scattered Clouds
2:54 PM 25.0 °F 11.3 °F -5.1 °F 27% 30.33 in 10.0 mi NNW 18.4 mph 29.9 mph N/A   Partly Cloudy
3:54 PM 24.1 °F 10.1 °F -2.9 °F 31% 30.36 in 10.0 mi NNW 18.4 mph 27.6 mph N/A   Clear
4:54 PM 23.0 °F 9.2 °F -4.0 °F 31% 30.39 in 10.0 mi NNW 17.3 mph 26.5 mph N/A   Clear
5:54 PM 21.0 °F 10.6 °F -2.9 °F 35% 30.42 in 10.0 mi NNW 9.2 mph 18.4 mph N/A   Clear
6:54 PM 18.0 °F 11.1 °F -0.9 °F 44% 30.45 in 10.0 mi NNW 4.6 mph - N/A   Clear
7:54 PM 19.9 °F 13.4 °F -2.0 °F 38% 30.46 in 10.0 mi NW 4.6 mph - N/A   Clear
8:54 PM 19.9 °F 9.3 °F -0.9 °F 40% 30.46 in 10.0 mi NW 9.2 mph - N/A   Clear
9:54 PM 19.0 °F 9.0 °F -0.0 °F 43% 30.46 in 10.0 mi NNW 8.1 mph - N/A   Clear
10:54 PM 19.0 °F 10.0 °F -0.9 °F 42% 30.47 in 10.0 mi NW 6.9 mph - N/A   Clear
11:54 PM 18.0 °F 6.9 °F -2.9 °F 40% 30.48 in 10.0 mi NW 9.2 mph - N/A   Clear